Flag for U.S.A. Weather past 2 weeks in Avalon (Santa Catalina Island), California, U.S.A.

Now
55 °F

More clouds than sun.


Feels Like: 52 °F
Forecast: 57 / 65 °F
Wind: 9 mph from Southwest

Location: Catalina Airport

Current Time: May 23, 2015 at 10:32:27 AM

Latest Report: May 23, 2015 at 10:00 AM


Visibility: 10 mi

Pressure: 30.10 "Hg

Humidity: 83%

Dew point: 50 °F

Location of Avalon (Santa Catalina Island)Location

Historic Weather in Avalon (Santa Catalina Island) — Graph

°F

Avalon (Santa Catalina Island) temperature yesterday

Maximum temperature yesterday: 57 °F (at 10:55 AM)
Minimum temperature yesterday: 51 °F (at 3:51 AM)
Average temperature yesterday: 54 °F

Past Weeks' High & Low Weather Summary

 TemperatureHumidityPressure
High71 °F (May 11, 2:51 PM)100% (May 9, 12:03 AM)30.09 "Hg (May 9, 12:03 AM)
Low48 °F (May 10, 4:51 AM)38% (May 11, 2:51 PM)29.81 "Hg (May 11, 5:51 PM)
Average54 °F85%29.97 "Hg
* Reported May 8 8:51 AM — May 23 8:51 AM, Avalon (Santa Catalina Island), Weather by CustomWeather, © 2015

Note: Actual official high and low records may vary slightly from our data, if they occured in-between our weather recording intervals... More about our weather records

Advertising

Avalon (Santa Catalina Island) weather history for previous 24 hours

 ConditionsComfort  
Time TempWeatherWind HumidityBarometerVisibility
8:51 AM
Sat, May 23
55 °FOvercast.7 mph80%30.09 "Hg10 mi
7:51 AM54 °FOvercast.7 mph80%30.08 "Hg10 mi
6:51 AM53 °FMore clouds than sun.6 mph93%30.07 "Hg10 mi
5:51 AM52 °FLow clouds.10 mph97%30.05 "Hg7 mi
4:51 AM52 °FFog.9 mph100%30.05 "Hg2 mi
3:59 AM52 °FFog.12 mph97%30.06 "Hg2 mi
2:51 AM52 °FPassing clouds.13 mph97%30.05 "Hg10 mi
1:51 AM52 °FPassing clouds.13 mph97%30.06 "Hg10 mi
1:04 AM53 °FFog.13 mph96%30.08 "Hg2 mi
12:51 AM53 °FPassing clouds.10 mph96%30.06 "Hg10 mi
11:51 PM
Fri, May 22
53 °FFog.12 mph96%30.06 "Hg3 mi
10:51 PM53 °FFog.12 mph96%30.07 "Hg3 mi
9:51 PM53 °FFog.13 mph100%30.08 "Hg1 mi
8:51 PM53 °FMostly cloudy.12 mph96%30.07 "Hg10 mi
7:53 PM54 °FFog.15 mph93%30.07 "Hg3 mi
6:51 PM54 °FMostly cloudy.16 mph93%30.04 "Hg9 mi
5:51 PM55 °FLow clouds.16 mph87%30.03 "Hg10 mi
4:51 PM56 °FMostly cloudy.16 mph81%30.02 "Hg10 mi
3:51 PM56 °FPartly sunny.14 mph81%30.02 "Hg10 mi
2:51 PM56 °FMostly cloudy.16 mph77%30.03 "Hg10 mi
1:51 PM56 °FMostly cloudy.15 mph81%30.03 "Hg10 mi
12:51 PM57 °FPartly sunny.14 mph74%30.03 "Hg10 mi
11:51 AM56 °FMostly cloudy.17 mph77%30.04 "Hg10 mi
10:55 AM57 °FPartly sunny.14 mph72%30.05 "Hg10 mi
Weather by CustomWeather, © 2015

See weather overviewHow to use our weather pages